Home   Weather   Fevik   Past weeks
Flag for Norway

Past Weather in Fevik, Norway — Yesterday and Last 2 Weeks

Now
63 °F

Mild.


Feels Like: 63 °F
Forecast: 63 / 57 °F
Wind: 5 mph from South

Location: Lyngor Fyr

Current Time: Jul 19, 2019 at 12:34:35 pm

Latest Report: Jul 19, 2019 at 11:00 am


Visibility: N/A

Pressure: 29.85 "Hg

Humidity: 85%

Dew Point: 59 °F

Location of FevikLocation

Past Weather in Fevik — Graph

°F

Fevik Temperature Yesterday

Maximum temperature yesterday: 64 °F (at 5:00 pm)
Minimum temperature yesterday: 56 °F (at 3:00 am)
Average temperature yesterday: 59 °F

High & Low Weather Summary for the Past Weeks

 TemperatureHumidityPressure
High68 °F (Jul 13, 5:00 pm)94% (Jul 12, 5:00 am)30.00 "Hg (Jul 12, 5:00 am)
Low51 °F (Jul 5, 4:00 am)20% (Jul 4, 7:00 pm)29.44 "Hg (Jul 6, 1:00 pm)
Average61 °F72%29.84 "Hg
* Reported Jul 4 11:00 am — Jul 19 11:00 am, Fevik. Weather by CustomWeather, © 2019

Note: Actual official high and low records may vary slightly from our data, if they occured in-between our weather recording intervals... More about our weather records

Advertising

Fevik Weather History for the Previous 24 Hours

Scroll right to see more
 ConditionsComfort  
Time TempWeatherWind HumidityBarometerVisibility
11:00 am
Fri, Jul 19
63 °FMild.5 mph85%29.85 "HgN/A
10:00 am62 °FCool.5 mph87%29.84 "HgN/A
9:00 am62 °FCool.5 mph85%29.83 "HgN/A
8:00 am61 °FCool.1 mph88%29.83 "HgN/A
7:00 am61 °FCool.6 mph86%29.83 "HgN/A
6:00 am61 °FCool.No wind92%29.82 "HgN/A
5:00 am60 °FCool.2 mph92%29.82 "HgN/A
4:00 am60 °FCool.1 mph91%29.83 "HgN/A
3:00 am59 °FCool.2 mph91%29.82 "HgN/A
2:00 am59 °FCool.3 mph91%29.83 "HgN/A
1:00 am59 °FCool.2 mph88%29.84 "HgN/A
12:00 am60 °FCool.3 mph88%29.85 "HgN/A
11:00 pm
Thu, Jul 18
61 °FCool.3 mph86%29.85 "HgN/A
10:00 pm60 °FCool.3 mph83%29.85 "HgN/A
9:00 pm61 °FCool.2 mph80%29.85 "HgN/A
8:00 pm62 °FCool.3 mph77%29.86 "HgN/A
7:00 pm63 °FMild.2 mph72%29.86 "HgN/A
6:00 pm63 °FMild.1 mph71%29.88 "HgN/A
5:00 pm64 °FMild.2 mph70%29.88 "HgN/A
4:00 pm63 °FMild.3 mph73%29.89 "HgN/A
3:00 pm61 °FCool.3 mph77%29.89 "HgN/A
2:00 pm60 °FCool.3 mph80%29.90 "HgN/A
1:00 pm59 °FCool.5 mph82%29.90 "HgN/A
12:00 pm58 °FCool.5 mph85%29.90 "HgN/A
Weather by CustomWeather, © 2019

See weather overview